Location: Madrid
(40.4000°N, 3.6830°W)
Time: 13:06:31
(UTC+01:00)

ISS - Pass Details

Date: 12 December 2019
Orbit: 411 x 421 km, 51.6° (Epoch: 11 December)

Event Time Altitude Azimuth Distance (km) Brightness Sun altitude
Rises 18:22:38 0° 303° (WNW) 2,356 0.5 -6.6°
Reaches altitude 10° 18:24:45 10° 299° (WNW) 1,492 -0.4 -7.0°
Maximum altitude 18:28:03 55° 221° (SW) 507 -2.9 -7.5°
Drops below altitude 10° 18:31:19 10° 143° (SE) 1,489 -1.1 -8.1°
Sets 18:33:26 0° 138° (SE) 2,350 -0.1 -8.5°
